sat.trackr.live / text

‹ back to catalog

ION SCV-008

NORAD 55051 · 2023-001AU

PAYLOAD ACTIVE UNKNOWN

§ Identity

Operator
Country
IT
Launch date
2023-01-03
Launch site
AFETR
Launch vehicle
Mass (kg)
RCS (m²)

External: N2YO · Heavens-Above · Gunter

§ Orbital elements

Epoch: 2026-05-24T23:55:00.552288Z

Period
94.23 min
Inclination
97.5694°
Eccentricity
0.0016505
Mean motion
15.28244873 rev/d
Perigee alt
469.7 km
Apogee alt
492.4 km
Semi-major
6,859.2 km
B*
2.2395e-4
RAAN
240.9342°
Arg perigee
95.2064°
Mean anomaly
265.1059°
Rev number
18,779

§ Raw data

ION SCV-0081 55051U 23001AU  26144.99653417  .00006109  00000+0  22395-3 0  99922 55051  97.5694 240.9342 0016505  95.2064 265.1059 15.28244873187799

JSON: /api/v1/satellites/55051 · /tle

For live sub-satellite position, see the globe view (requires WebGL).

§ Visibility from observer

Set your observer location to see the next 7 days of passes ≥ 10°. The values pass through the URL so the page stays shareable.

No JS? Fill the form by hand. The geolocation button needs JavaScript.

§ Radio — SatNOGS DB

ModeDescriptionDownlinkUplink
FSK AX.100 Mode 5 Mode U - FSK1k2 AX.100 401.415 MHz
BPSK S-Band Transmitter 2.260 GHz

2 transmitters · refreshed weekly from db.satnogs.org